Location: Newark
(13.8117°N, 3.6025°W)
Time: 19:54:03
(UTC+00:00)

Vanguard 2 - Pass Details

Date: 27 August 2019
Orbit: 554 x 2937 km, 32.9° (Epoch: 18 October)

Event Time Altitude Azimuth Distance (km) Brightness Sun altitude
Rises 21:36:09 0° 265° (W) 6,282 12.8 -43.8°
Reaches altitude 10° 21:42:40 10° 247° (WSW) 5,567 12.2 -45.2°
Maximum altitude 21:52:04 17° 213° (SSW) 5,182 11.6 -47.2°
Enters shadow 21:56:48 15° 196° (SSW) 5,312 11.6 -48.1°
Drops below altitude 10° 22:01:44 10° 179° (S) 5,656 - -49.1°
Sets 22:08:40 0° 161° (SSE) 6,413 - -50.5°
